This is the latest recevied weather packets stored in our database for station/object KC4KQE. If no packets are shown the sender has not sent any weather packets the latest 10 day(s).
| Time | Temp. | Humidity | Pressure | Rain* | Wind** | Luminosity | Snow |
|---|---|---|---|---|---|---|---|
| 1777831457 | 31.11° C | 19% | 1012.6 hPa | 0 mm | - | 719 W/m² | - |
| 1777831157 | 31.11° C | 19% | 1012.5 hPa | 0 mm | - | 705 W/m² | - |
| 1777830857 | 31.11° C | 19% | 1012.5 hPa | 0 mm | - | 751 W/m² | - |
| 1777830557 | 31.11° C | 20% | 1012.6 hPa | 0 mm | - | 707 W/m² | - |
| 1777830257 | 31.11° C | 20% | 1012.6 hPa | 0 mm | - | 640 W/m² | - |
| 1777829957 | 31.11° C | 19% | 1012.6 hPa | 0 mm | - | 789 W/m² | - |
| 1777829657 | 30.56° C | 20% | 1012.7 hPa | 0 mm | - | 749 W/m² | - |
| 1777829357 | 30° C | 21% | 1012.7 hPa | 0 mm | - | 666 W/m² | - |
| 1777829057 | 30° C | 22% | 1012.8 hPa | 0 mm | - | 691 W/m² | - |
| 1777828757 | 30° C | 22% | 1012.7 hPa | 0 mm | - | 471 W/m² | - |
| 1777828457 | 30° C | 23% | 1012.8 hPa | 0 mm | - | 513 W/m² | - |
| 1777828157 | 30° C | 23% | 1012.9 hPa | 0 mm | - | 585 W/m² | - |
| 1777827858 | 29.44° C | 23% | 1012.8 hPa | 0 mm | - | 522 W/m² | - |
| 1777827562 | 29.44° C | 23% | 1012.9 hPa | 0 mm | - | 647 W/m² | - |
| 1777827257 | 29.44° C | 24% | 1012.9 hPa | 0 mm | - | 464 W/m² | - |
| 1777826957 | 29.44° C | 24% | 1013 hPa | 0 mm | - | 436 W/m² | - |
| 1777826657 | 28.89° C | 24% | 1013.1 hPa | 0 mm | - | 461 W/m² | - |
| 1777826357 | 28.89° C | 24% | 1013.1 hPa | 0 mm | - | 503 W/m² | - |
| 1777826057 | 28.89° C | 24% | 1013.1 hPa | 0 mm | - | 443 W/m² | - |
| 1777825757 | 28.33° C | 24% | 1012.9 hPa | 0 mm | - | 598 W/m² | - |
| 1777825457 | 28.33° C | 25% | 1012.9 hPa | 0 mm | - | 410 W/m² | - |
| 1777825157 | 28.89° C | 25% | 1012.9 hPa | 0 mm | - | 366 W/m² | - |
| 1777824857 | 28.33° C | 25% | 1013 hPa | 0 mm | - | 418 W/m² | - |
| 1777824557 | 28.33° C | 25% | 1013.1 hPa | 0 mm | - | 355 W/m² | - |
| 1777824257 | 27.78° C | 25% | 1013 hPa | 0 mm | - | 311 W/m² | - |
* Rain latest hour (hover to see other rain measurements)
** Current wind speed in m/s (hover to see current wind gust speed)